{"data":{"norad_id":67050,"epoch":"2026-09-19T15:17:31.240896Z","epoch_age_seconds":156009,"freshness":"FRESH","line1":"1 67050U 25294W   26262.63716714  .00015648  00000+0  57659-3 0  9991","line2":"2 67050  43.0019  22.5233 0001290 126.4974 233.5996 15.27600812 44466","mean_motion":15.27600812,"eccentricity":0.000129,"inclination_deg":43.0019,"raan_deg":22.5233,"arg_perigee_deg":126.4974,"mean_anomaly_deg":233.5996,"bstar":0.00057659,"rev_number":4446,"period_min":94.265464425532,"perigee_km":482.10169316472,"apogee_km":483.87186309948,"semimajor_km":6861.1237781321,"source":"CELESTRAK","updated_at":"2026-09-21T09:00:36.095224Z"}}